Regional Weather Roundup
Issued by NWS Goodland, KS

Home | Current Version | Previous Version | Text Only | Print | Product List | Glossary Off
Versions: 1 2 3 4 5 6 7 8 9 10 11 12 13 14 15 16 17 18 19 20 21 22 23 24 25 26 27 28 29 30 31 32 33 34 35 36 37 38 39 40 41 42 43 44 45 46 47 48 49 50

000
ASUS43 KGLD 021859
RWRGLD

GOODLAND FORECAST AREA HOURLY WEATHER ROUNDUP
NATIONAL WEATHER SERVICE GOODLAND KS
100 PM MDT TUE SEP 02 2014

...OFFICIAL OBSERVATIONS...

CITY           SKY/WX    TMP DP  RH WIND       PRES   REMARKS
GOODLAND KS    SUNNY     82  51  34 S18       30.05F
HILL CITY KS   SUNNY     84  59  42 SE10      30.02F
IMPERIAL NEB   MOSUNNY   80  59  48 S14G24    30.01F
MCCOOK NEB     SUNNY     83  57  41 S9        30.01F
AKRON CO       MOSUNNY   79  58  48 SW15G31   30.05F
BURLINGTON CO  SUNNY     81  55  40 S17       30.07F
LIMON CO       PTSUNNY   73  58  59 S17G26    30.12F
$$

...UNOFFICIAL OBSERVATIONS...

CITY           SKY/WX    TMP DP  RH WIND       PRES   REMARKS
COLBY KS       SUNNY     82  61  47 S9        30.05F
NORTON KS      SUNNY     82  45  26 SE12      30.01F
SHARON SPRINGS   N/A     82  61  49 SE9         N/A
WAKEENEY KS      N/A     85  52  32 MISG        N/A
KIT CARSON CO    N/A     79  59  50 N8G16       N/A
YUMA CO          N/A     77  60  54 SW18        N/A
$$


USA.gov is the U.S. government's official web portal to all federal, state and local government web resources and services.